Flag for U.S.A. Weather past 2 weeks in Sevierville, Tennessee, U.S.A.

60 °F

Light rain. Mostly cloudy.

Feels Like: 60 °F
Forecast: 57 / 63 °F
Wind: 3 mph from Southwest

Location: McGhee Tyson Airport

Current Time: Nov 30, 2015 at 11:03:09 PM

Latest Report: Nov 30, 2015 at 9:53 PM

Visibility: 10 mi

Pressure: 30.02 "Hg

Humidity: 93%

Dew point: 58 °F

Location of SeviervilleLocation

Historic Weather in Sevierville — Graph


Sevierville temperature yesterday

Maximum temperature yesterday: 59 °F (at 10:53 AM)
Minimum temperature yesterday: 55 °F (at 1:53 AM)
Average temperature yesterday: 57 °F

Past Weeks' High & Low Weather Summary

High73 °F (Nov 18, 11:53 AM)100% (Nov 29, 6:53 PM)30.65 "Hg (Nov 29, 6:53 PM)
Low25 °F (Nov 23, 7:53 AM)30% (Nov 20, 2:53 PM)29.84 "Hg (Nov 18, 2:53 PM)
Average50 °F69%30.23 "Hg
* Reported Nov 15 9:53 PM — Nov 30 9:53 PM, Sevierville, Weather by CustomWeather, © 2015

Note: Actual official high and low records may vary slightly from our data, if they occured in-between our weather recording intervals... More about our weather records


Sevierville weather history for previous 24 hours

Time TempWeatherWind HumidityBarometerVisibility
9:53 PM
Mon, Nov 30
60 °FLight rain. Mostly cloudy.3 mph93%30.02 "Hg10 mi
8:53 PM60 °FRain. Fog.7 mph93%30.03 "Hg6 mi
8:01 PM60 °FLight rain. Mostly cloudy.7 mph93%30.05 "Hg10 mi
6:53 PM60 °FLight rain. Mostly cloudy.6 mph93%30.03 "Hg10 mi
5:53 PM60 °FMostly cloudy.5 mph93%30.02 "Hg10 mi
4:53 PM60 °FMostly cloudy.8 mph93%30.02 "Hg10 mi
3:53 PM61 °FLight rain. Mostly cloudy.8 mph93%30.01 "Hg10 mi
2:53 PM61 °FLight rain. Fog.7 mph93%30.01 "Hg2 mi
1:53 PM60 °FLight rain. Fog.7 mph96%30.01 "Hg5 mi
12:53 PM61 °FLight rain. Fog.12 mph93%30.02 "Hg2 mi
11:53 AM61 °FRain. Fog.10 mph93%30.04 "Hg2 mi
10:50 AM61 °FLight rain. Fog.5 mph94%30.07 "Hg1 mi
9:53 AM59 °FFog.No wind96%30.05 "Hg1 mi
8:53 AM58 °FLight rain. Fog.3 mph97%30.04 "Hg1 mi
8:01 AM58 °FLight rain. Fog.No wind97%30.04 "Hg1 mi
6:55 AM58 °FLight rain. Mostly cloudy.6 mph97%30.03 "Hg7 mi
5:53 AM58 °FLight rain. Fog.3 mph97%30.00 "Hg3 mi
4:53 AM58 °FLight rain. Low clouds.3 mph97%30.00 "Hg8 mi
3:53 AM58 °FRain. Fog.3 mph97%30.00 "Hg5 mi
2:53 AM58 °FLight rain. Fog.No wind97%30.01 "Hg4 mi
1:53 AM58 °FRain. Fog.7 mph97%30.03 "Hg3 mi
12:53 AM58 °FHeavy rain. Fog.5 mph97%30.06 "Hg3 mi
11:53 PM
Sun, Nov 29
58 °FHeavy rain. Fog.5 mph97%30.06 "Hg4 mi
Weather by CustomWeather, © 2015

See weather overviewHow to use our weather pages